Date String (YYYY-MM-DD hh:mm:ss) UTC,Instrument flags,Ambient pressure (hPa),Sample flow (lpm),Bypass flow (lpm),Sample temperature (°C),Ambient temperature (°C),ASC tube jacket temperature (°C),LED temperature (°C),Box temperature (°C),Sample RH (%),Span deviation,Mass concentration (μg/m³),Mass concentration (μg/m³),Mass concentration (μg/m³)
DateTimeUTC,F1_M11,P_M11,Q1_M11,Q2_M11,T1_M11,T2_M11,T3_M11,T4_M11,T5_M11,U1_M11,ZSPAN_M11,X2_M11,X0_M11,X1_M11
2023-05-27 11:00:00,,0829.0,4.99,0.00,28.0,26.3,00.0,36.4,29.6,27.3,0000.0,0003.60,0009.17,0002.86
2023-05-27 11:01:00,,0828.9,4.99,0.00,28.0,26.3,00.0,36.4,29.6,27.2,0000.0,0003.62,0009.11,0002.87
2023-05-27 11:02:00,,0828.9,5.00,0.00,28.0,26.3,00.0,36.4,29.6,27.1,0000.0,0003.61,0009.06,0002.88
2023-05-27 11:03:00,,0829.0,5.01,0.00,28.0,26.3,00.0,36.4,29.6,26.9,0000.0,0003.57,0009.02,0002.88
2023-05-27 11:04:00,,0829.0,5.01,0.00,28.0,26.3,00.0,36.4,29.6,26.8,0000.0,0003.54,0009.09,0002.87
2023-05-27 11:05:00,,0829.0,5.00,0.00,28.0,26.3,00.0,36.4,29.6,26.7,0000.0,0003.54,0009.09,0002.86
2023-05-27 11:06:00,,0829.0,4.99,0.00,28.0,26.3,00.0,36.4,29.6,26.6,0000.0,0003.51,0008.86,0002.84
2023-05-27 11:07:00,,0829.0,5.00,0.00,28.0,26.3,00.0,36.4,29.6,26.6,0000.0,0003.51,0008.51,0002.83
2023-05-27 11:08:00,,0829.0,5.00,0.00,28.0,26.3,00.0,36.4,29.6,26.6,0000.0,0003.46,0008.62,0002.81
2023-05-27 11:09:00,,0828.9,5.00,0.00,28.0,26.3,00.0,36.4,29.6,26.6,0000.0,0003.40,0008.25,0002.80
2023-05-27 11:10:00,,0828.7,4.99,0.00,28.0,26.3,00.0,36.4,29.6,26.5,0000.0,0003.39,0008.09,0002.78
2023-05-27 11:11:00,,0828.7,4.99,0.00,28.0,26.3,00.0,36.4,29.6,26.5,0000.0,0003.34,0007.96,0002.75
2023-05-27 11:12:00,,0828.6,5.00,0.00,28.0,26.3,00.0,36.4,29.6,26.4,0000.0,0003.30,0007.84,0002.74
2023-05-27 11:13:00,,0828.6,5.00,0.00,28.0,26.3,00.0,36.4,29.6,26.3,0000.0,0003.27,0007.90,0002.72
2023-05-27 11:14:00,,0828.6,5.00,0.00,28.0,26.3,00.0,36.4,29.6,26.2,0000.0,0003.21,0007.75,0002.70
2023-05-27 11:15:00,,0828.6,5.01,0.00,28.0,26.3,00.0,36.4,29.6,26.1,0000.0,0003.22,0006.90,0002.67
2023-05-27 11:16:00,,0828.6,4.99,0.00,28.0,26.2,00.0,36.4,29.6,26.1,0000.0,0003.24,0007.36,0002.65
2023-05-27 11:17:00,,0828.6,4.99,0.00,28.0,26.2,00.0,36.3,29.6,26.1,0000.0,0003.23,0007.37,0002.64
2023-05-27 11:18:00,,0828.6,5.00,0.00,28.0,26.2,00.0,36.3,29.6,26.0,0000.0,0003.22,0006.96,0002.64
2023-05-27 11:19:00,,0828.6,5.02,0.00,28.0,26.2,00.0,36.3,29.6,26.1,0000.0,0003.19,0006.74,0002.62
2023-05-27 11:20:00,,0828.6,5.00,0.00,27.9,26.2,00.0,36.3,29.6,26.2,0000.0,0003.18,0005.64,0002.59
2023-05-27 11:21:00,,0828.7,4.99,0.00,27.9,26.2,00.0,36.3,29.6,26.3,0000.0,0003.20,0005.67,0002.59
2023-05-27 11:22:00,,0828.6,4.99,0.00,27.9,26.2,00.0,36.3,29.6,26.4,0000.0,0003.19,0005.66,0002.58
2023-05-27 11:23:00,,0828.7,5.01,0.00,27.9,26.2,00.0,36.3,29.6,26.5,0000.0,0003.18,0005.77,0002.58
2023-05-27 11:24:00,,0828.7,5.00,0.00,27.9,26.2,00.0,36.3,29.6,26.5,0000.0,0003.21,0006.01,0002.58
2023-05-27 11:25:00,,0828.7,4.98,0.00,27.9,26.2,00.0,36.3,29.6,26.6,0000.0,0003.22,0005.91,0002.59
2023-05-27 11:26:00,,0828.7,5.01,0.00,27.9,26.2,00.0,36.3,29.6,26.6,0000.0,0003.22,0005.83,0002.60
2023-05-27 11:27:00,,0828.7,5.01,0.00,27.9,26.2,00.0,36.3,29.5,26.7,0000.0,0003.19,0005.87,0002.61
2023-05-27 11:28:00,,0828.7,4.99,0.00,27.9,26.2,00.0,36.3,29.5,26.7,0000.0,0003.17,0006.34,0002.62
2023-05-27 11:29:00,,0828.7,4.99,0.00,27.9,26.2,00.0,36.3,29.5,26.8,0000.0,0003.17,0006.40,0002.62
2023-05-27 11:30:00,,0828.7,5.00,0.00,27.9,26.2,00.0,36.3,29.5,26.8,0000.0,0003.25,0006.93,0002.64
2023-05-27 11:31:00,,0828.7,5.00,0.00,27.9,26.2,00.0,36.3,29.5,26.8,0000.0,0003.28,0007.07,0002.66
2023-05-27 11:32:00,,0828.7,5.01,0.00,27.9,26.2,00.0,36.3,29.6,26.8,0000.0,0003.27,0006.98,0002.67
2023-05-27 11:33:00,,0828.7,5.01,0.00,27.9,26.2,00.0,36.3,29.6,26.8,0000.0,0003.29,0007.00,0002.68
2023-05-27 11:34:00,,0828.7,4.99,0.00,27.9,26.3,00.0,36.3,29.6,26.8,0000.0,0003.31,0007.07,0002.67
2023-05-27 11:35:00,,0828.6,4.99,0.00,27.9,26.2,00.0,36.3,29.6,26.9,0000.0,0003.31,0006.71,0002.68
2023-05-27 11:36:00,,0828.6,5.00,0.00,27.9,26.2,00.0,36.3,29.6,27.0,0000.0,0003.30,0006.67,0002.67
2023-05-27 11:37:00,,0828.6,5.00,0.00,27.9,26.2,00.0,36.3,29.5,27.0,0000.0,0003.29,0006.57,0002.67
2023-05-27 11:38:00,,0828.6,5.00,0.00,27.9,26.2,00.0,36.3,29.5,27.0,0000.0,0003.31,0006.29,0002.67
2023-05-27 11:39:00,,0828.6,5.00,0.00,27.9,26.2,00.0,36.3,29.5,27.0,0000.0,0003.31,0005.64,0002.66
2023-05-27 11:40:00,,0828.6,4.99,0.00,27.9,26.2,00.0,36.3,29.5,26.9,0000.0,0003.34,0006.44,0002.67
2023-05-27 11:41:00,,0828.7,5.00,0.00,27.9,26.2,00.0,36.3,29.5,26.9,0000.0,0003.32,0007.39,0002.68
2023-05-27 11:42:00,,0828.6,5.01,0.00,27.9,26.2,00.0,36.3,29.5,26.8,0000.0,0003.28,0007.22,0002.67
2023-05-27 11:43:00,,0828.6,5.00,0.00,27.9,26.2,00.0,36.3,29.5,26.7,0000.0,0003.25,0007.13,0002.65
2023-05-27 11:44:00,,0828.6,5.00,0.00,27.9,26.2,00.0,36.3,29.5,26.7,0000.0,0003.23,0007.04,0002.62
2023-05-27 11:45:00,,0828.5,4.99,0.00,27.9,26.1,00.0,36.3,29.5,26.8,0000.0,0003.23,0007.31,0002.63
2023-05-27 11:46:00,,0828.5,4.99,0.00,27.9,26.1,00.0,36.3,29.5,26.7,0000.0,0003.25,0007.73,0002.62
2023-05-27 11:47:00,,0828.5,5.01,0.00,27.9,26.1,00.0,36.3,29.5,26.7,0000.0,0003.26,0007.75,0002.62
2023-05-27 11:48:00,,0828.4,5.01,0.00,27.9,26.1,00.0,36.2,29.5,26.6,0000.0,0003.27,0007.83,0002.61
2023-05-27 11:49:00,,0828.4,5.00,0.00,27.9,26.2,00.0,36.2,29.5,26.6,0000.0,0003.25,0007.73,0002.61
2023-05-27 11:50:00,,0828.4,4.99,0.00,27.9,26.2,00.0,36.2,29.5,26.6,0000.0,0003.24,0007.76,0002.60
2023-05-27 11:51:00,,0828.4,4.99,0.00,27.9,26.2,00.0,36.2,29.5,26.6,0000.0,0003.22,0007.89,0002.58
2023-05-27 11:52:00,,0828.4,5.00,0.00,27.9,26.2,00.0,36.2,29.5,26.6,0000.0,0003.17,0006.75,0002.55
2023-05-27 11:53:00,,0828.3,5.01,0.00,27.9,26.1,00.0,36.2,29.5,26.7,0000.0,0003.15,0006.48,0002.52
2023-05-27 11:54:00,,0828.3,5.00,0.00,27.8,26.1,00.0,36.2,29.5,26.7,0000.0,0003.14,0006.47,0002.51
2023-05-27 11:55:00,,0828.2,5.01,0.00,27.8,26.1,00.0,36.2,29.5,26.8,0000.0,0003.13,0006.49,0002.49
2023-05-27 11:56:00,,0828.2,5.01,0.00,27.8,26.1,00.0,36.2,29.5,26.8,0000.0,0003.12,0006.50,0002.47
2023-05-27 11:57:00,,0828.2,4.99,0.00,27.8,26.1,00.0,36.2,29.5,26.8,0000.0,0003.11,0005.70,0002.47
2023-05-27 11:58:00,,0828.2,4.99,0.00,27.8,26.1,00.0,36.2,29.5,26.8,0000.0,0003.09,0005.61,0002.46
2023-05-27 11:59:00,,0828.2,4.99,0.00,27.8,26.1,00.0,36.2,29.5,26.7,0000.0,0003.03,0005.49,0002.43
